EW6254 Weather Reports


Display with metric or nautical units.
time (UTC)temp
F
wind
direction
speed
MPH
gust
MPH
rain 1hr
in
rain 24hr
in
rain mn
in
humidity
%
barometer
mb
20171124065829 52 215 0.0 5.0 0.00 0.00 0.00 64 1004.7
20171124064832 52 194 0.0 0.0 0.00 0.00 0.00 64 1005.0
20171124063837 52 165 0.0 0.0 0.00 0.00 0.00 65 1005.2
20171124062820 52 194 0.0 0.0 0.00 0.00 0.00 65 1005.4
20171124061821 52 171 0.0 0.0 0.00 0.00 0.00 65 1005.6
20171124060819 52 178 1.0 5.0 0.00 0.00 0.00 65 1005.7
20171124055828 52 194 1.0 3.0 0.00 0.00 0.00 65 1005.7
20171124054759 52 188 0.0 0.0 0.00 0.00 0.00 64 1005.9
20171124053748 52 194 0.0 0.0 0.00 0.00 0.00 63 1006.1
20171124052742 53 194 1.0 5.0 0.00 0.00 0.00 63 1006.3
20171124051745 53 220 0.0 2.0 0.00 0.00 0.00 62 1006.5
20171124050748 54 211 1.0 3.0 0.00 0.00 0.00 62 1006.7
20171124045809 54 167 1.0 5.0 0.00 0.00 0.00 62 1006.7
20171124044809 54 217 0.0 0.0 0.00 0.00 0.00 61 1007.1
20171124042602 54 171 1.0 0.0 0.00 0.00 0.00 61 1007.4
20171124041610 54 170 0.0 4.0 0.00 0.00 0.00 61 1007.6
20171124040558 54 178 0.0 0.0 0.00 0.00 0.00 61 1007.8
20171124035541 54 217 0.0 3.0 0.00 0.00 0.00 61 1008.0
20171124034527 54 172 1.0 5.0 0.00 0.00 0.00 61 1008.2
20171124032439 54 171 0.0 4.0 0.00 0.00 0.00 60 1008.3
20171124025209 54 155 1.0 6.0 0.00 0.00 0.00 60 1008.7
20171124024140 54 171 1.0 4.0 0.00 0.00 0.00 59 1009.0
20171124022005 54 178 0.0 0.0 0.00 0.00 0.00 58 1009.0
20171124020943 55 190 0.0 0.0 0.00 0.00 0.00 58 1009.0
20171124015926 55 184 0.0 4.0 0.00 0.00 0.00 58 1009.1
20171124014924 55 192 0.0 0.0 0.00 0.00 0.00 57 1009.2
20171124012818 55 161 0.0 6.0 0.00 0.00 0.00 56 1009.5
20171124011840 55 163 1.0 6.0 0.00 0.00 0.00 56 1009.5
20171124010859 56 155 1.0 7.0 0.00 0.00 0.00 56 1009.7
20171124004802 56 190 0.0 0.0 0.00 0.00 0.00 55 1010.3
20171124002612 57 156 1.0 4.0 0.00 0.00 0.00 54 1010.3
20171124001559 57 175 0.0 0.0 0.00 0.00 0.00 53 1010.4
20171124000611 57 159 0.0 0.0 0.00 0.00 0.00 52 1010.6
20171123235552 58 163 0.0 3.0 0.00 0.00 0.00 52 1010.6
20171123234528 58 143 0.0 5.0 0.00 0.00 0.00 51 1010.5
20171123233510 59 160 0.0 6.0 0.00 0.00 0.00 50 1010.6
20171123232532 59 161 1.0 6.0 0.00 0.00 0.00 50 1010.7
20171123231530 59 158 1.0 5.0 0.00 0.00 0.00 49 1010.8
20171123230552 60 156 0.0 5.0 0.00 0.00 0.00 48 1010.8
20171123225538 60 0 0.0 0.0 0.00 0.00 0.00 48 1010.9
20171123224600 61 0 0.0 0.0 0.00 0.00 0.00 47 1011.3
20171123223620 61 0 0.0 4.0 0.00 0.00 0.00 46 1011.3
20171123222618 61 0 0.0 0.0 0.00 0.00 0.00 46 1011.4
20171123221635 62 0 1.0 5.0 0.00 0.00 0.00 45 1011.5
20171123220638 62 0 0.0 0.0 0.00 0.00 0.00 45 1011.6
20171123215624 62 0 0.0 0.0 0.00 0.00 0.00 45 1011.8
20171123214636 62 0 1.0 6.0 0.00 0.00 0.00 45 1011.8
20171123213611 62 0 0.0 0.0 0.00 0.00 0.00 45 1011.9
20171123212546 62 0 1.0 0.0 0.00 0.00 0.00 45 1011.7
20171123211533 62 0 2.0 7.0 0.00 0.00 0.00 45 1011.9
20171123210521 62 0 2.0 8.0 0.00 0.00 0.00 44 1012.1
20171123205504 62 0 2.0 8.0 0.00 0.00 0.00 45 1012.2
20171123204508 62 193 0.0 4.0 0.00 0.00 0.00 47 1012.5
20171123203446 62 0 1.0 6.0 0.00 0.00 0.00 46 1012.7
20171123202508 62 0 1.0 5.0 0.00 0.00 0.00 45 1013.0
20171123201511 62 215 1.0 6.0 0.00 0.00 0.00 45 1013.1
20171123200500 61 0 1.0 4.0 0.00 0.00 0.00 46 1013.0
20171123195449 61 0 1.0 3.0 0.00 0.00 0.00 46 1013.4
20171123194417 61 0 0.0 0.0 0.00 0.00 0.00 46 1013.6
20171123193347 60 0 0.0 3.0 0.00 0.00 0.00 46 1013.8
20171123192323 60 213 1.0 4.0 0.00 0.00 0.00 48 1014.1
20171123191337 59 269 0.0 1.0 0.00 0.00 0.00 49 1014.3
20171123190321 58 342 0.0 2.0 0.00 0.00 0.00 49 1014.6
20171123185251 58 0 0.0 1.0 0.00 0.00 0.00 49 1014.9
20171123184233 58 279 1.0 4.0 0.00 0.00 0.00 49 1015.1
20171123183216 58 306 0.0 4.0 0.00 0.00 0.00 50 1015.2
20171123182148 57 0 0.0 0.0 0.00 0.00 0.00 51 1015.3
20171123181159 57 0 0.0 5.0 0.00 0.00 0.00 51 1015.5
20171123180147 56 0 0.0 0.0 0.00 0.00 0.00 52 1015.6
20171123175147 56 0 0.0 0.0 0.00 0.00 0.00 52 1015.9
20171123174152 55 227 0.0 0.0 0.00 0.00 0.00 53 1016.2
20171123173156 54 0 0.0 0.0 0.00 0.00 0.00 55 1016.3
20171123172138 53 0 0.0 0.0 0.00 0.00 0.00 57 1016.4
20171123171127 52 58 0.0 0.0 0.00 0.00 0.00 57 1016.4
20171123170120 51 0 0.0 0.0 0.00 0.00 0.00 58 1016.7
20171123165116 51 64 0.0 0.0 0.00 0.00 0.00 60 1016.8
20171123164117 50 323 0.0 0.0 0.00 0.00 0.00 62 1017.0
20171123163123 48 344 0.0 4.0 0.00 0.00 0.00 63 1017.3
20171123162144 47 320 0.0 0.0 0.00 0.00 0.00 64 1017.3
20171123161202 47 0 0.0 5.0 0.00 0.00 0.00 65 1017.3
20171123160143 46 332 0.0 0.0 0.00 0.00 0.00 67 1017.3
20171123155152 45 350 0.0 0.0 0.00 0.00 0.00 68 1017.3
20171123154157 44 0 0.0 0.0 0.00 0.00 0.00 68 1017.3
20171123153153 43 0 0.0 0.0 0.00 0.00 0.00 69 1017.3
20171123152125 42 311 0.0 0.0 0.00 0.00 0.00 70 1017.5
20171123151139 42 0 0.0 0.0 0.00 0.00 0.00 73 1017.5
20171123150128 41 0 0.0 0.0 0.00 0.00 0.00 76 1017.4
20171123145102 40 5 0.0 0.0 0.00 0.00 0.00 77 1017.5
20171123144055 39 9 0.0 3.0 0.00 0.00 0.00 77 1017.4
20171123143039 38 344 0.0 0.0 0.00 0.00 0.00 78 1017.4
20171123142002 37 355 0.0 2.0 0.00 0.00 0.00 78 1017.4
20171123140934 36 0 0.0 0.0 0.00 0.00 0.00 77 1017.6
20171123135936 36 0 0.0 0.0 0.00 0.00 0.00 77 1017.5
20171123134939 35 323 0.0 0.0 0.00 0.00 0.00 76 1017.5
20171123133919 35 319 0.0 3.0 0.00 0.00 0.00 75 1017.3
20171123132910 35 336 0.0 0.0 0.00 0.00 0.00 74 1017.5
20171123131838 35 342 0.0 0.0 0.00 0.00 0.00 73 1017.3
20171123130809 35 312 0.0 0.0 0.00 0.00 0.00 72 1017.2
20171123125824 35 313 0.0 0.0 0.00 0.00 0.00 71 1017.1
20171123124846 35 312 0.0 0.0 0.00 0.00 0.00 71 1016.9
20171123123820 35 319 0.0 0.0 0.00 0.00 0.00 71 1017.0
20171123122826 35 306 0.0 1.0 0.00 0.00 0.00 70 1017.0
20171123121843 35 304 0.0 0.0 0.00 0.00 0.00 69 1017.0
20171123120903 35 305 0.0 0.0 0.00 0.00 0.00 68 1017.0
20171123115854 35 309 0.0 0.0 0.00 0.00 0.00 68 1017.0
20171123114830 35 309 0.0 0.0 0.00 0.00 0.00 68 1016.9
20171123113848 35 309 0.0 0.0 0.00 0.00 0.00 68 1016.9
20171123112909 35 309 0.0 0.0 0.00 0.00 0.00 67 1016.9
20171123111927 35 309 0.0 0.0 0.00 0.00 0.00 66 1016.8
20171123110943 35 304 0.0 0.0 0.00 0.00 0.00 66 1016.8
20171123105916 35 304 0.0 0.0 0.00 0.00 0.00 65 1016.8
20171123104934 34 304 0.0 0.0 0.00 0.00 0.00 65 1016.8
20171123103930 34 306 0.0 0.0 0.00 0.00 0.00 64 1016.9
20171123102942 34 306 0.0 0.0 0.00 0.00 0.00 64 1016.7
20171123102004 34 306 0.0 0.0 0.00 0.00 0.00 64 1016.7
20171123100941 34 305 0.0 0.0 0.00 0.00 0.00 64 1016.7
20171123095949 34 284 0.0 0.0 0.00 0.00 0.00 64 1016.6
20171123094942 34 244 0.0 0.0 0.00 0.00 0.00 63 1016.5
20171123093956 34 226 0.0 0.0 0.00 0.00 0.00 63 1016.6
20171123092928 34 226 0.0 0.0 0.00 0.00 0.00 63 1016.5
20171123090921 34 226 0.0 0.0 0.00 0.00 0.00 63 1016.9
20171123085902 34 227 0.0 0.0 0.00 0.00 0.00 63 1016.9
20171123084847 34 226 0.0 0.0 0.00 0.00 0.00 63 1016.7
20171123083844 34 226 0.0 0.0 0.00 0.00 0.00 63 1016.7
20171123082821 34 227 0.0 0.0 0.00 0.00 0.00 63 1016.8
20171123075440 33 205 0.0 0.0 0.00 0.00 0.00 62 1016.5
20171123074434 33 204 0.0 0.0 0.00 0.00 0.00 62 1016.6
20171123073414 33 202 0.0 0.0 0.00 0.00 0.00 61 1016.6
20171123072338 33 202 0.0 0.0 0.00 0.00 0.00 61 1016.7
20171123071349 34 200 0.0 0.0 0.00 0.00 0.00 60 1016.7